Hartford, CT

12:36 AM EST on December 16, 2019 (GMT -0500)
Hartford-brainard

Weather History for KHFD - October, 2019

Change the Weather History Date:

Sunday, October 13, 2019

  Actual Average Record
Temperature  
Mean Temperature 56 °F -  
Max Temperature 66 °F 63 °F 87 °F (1954)
Min Temperature 48 °F 42 °F 28 °F (1957)
Degree Days  
Heating Degree Days 9    
Growing Degree Days 6 (Base 50)    
Moisture  
Dew Point 44 °F    
Average Humidity 67    
Maximum Humidity 93    
Minimum Humidity 33    
Precipitation  
Precipitation 0.00 in - - ()
Sea Level Pressure  
Sea Level Pressure 30.05 in    
Wind  
Wind Speed 3 mph ()    
Max Wind Speed 12 mph    
Max Gust Speed 17 mph    
Visibility 10.0 miles    
Events      
Averages and records for this station are not official NWS values.
T = Trace of Precipitation, MM = Missing Value Source: Averaged Metar Reports

Daily Weather History Graph

Daily Weather History Graph

Search for Another Location

Airport or City:

Astronomy

Oct. 13, 2019 Rise Set
Actual Time 7:00 AM EDT 6:12 PM EDT
Civil Twilight 6:32 AM EDT 6:40 PM EDT
Nautical Twilight 6:00 AM EDT 7:12 PM EDT
Astronomical Twilight 5:27 AM EDT 7:45 PM EDT
Moon 6:34 PM EDT (10/13) 6:30 AM EDT (10/13)
Length of Visible Light 12h 08m
Length of Day
11h 12m
Full, 100% of the Moon is Illuminated
Oct 13
Full
Oct 13
Full
Oct 21
Last Quarter
Oct 27
New
Nov 4
First Quarter

Hourly Weather History & Observations

Time (EDT) Temp. Dew Point Humidity Pressure Visibility Wind Dir Wind Speed Gust Speed Precip Events Conditions
12:53 AM 52.0 °F 50.0 °F 93% 29.99 in 10.0 mi Calm Calm - N/A   Overcast
1:53 AM 53.1 °F 51.1 °F 93% 29.99 in 10.0 mi Calm Calm - N/A   Overcast
2:53 AM 53.1 °F 50.0 °F 89% 30.00 in 10.0 mi South 3.5 mph - N/A   Overcast
3:53 AM 52.0 °F 48.9 °F 89% 30.00 in 10.0 mi Calm Calm - N/A   Scattered Clouds
4:53 AM 55.9 °F 45.0 °F 67% 30.02 in 10.0 mi NNW 9.2 mph - N/A   Mostly Cloudy
5:53 AM 55.9 °F 44.1 °F 64% 30.04 in 10.0 mi NNW 5.8 mph - N/A   Overcast
6:53 AM 54.0 °F 42.1 °F 64% 30.07 in 10.0 mi NNW 9.2 mph 17.3 mph N/A   Mostly Cloudy
7:53 AM 53.1 °F 41.0 °F 64% 30.09 in 10.0 mi NNW 6.9 mph - N/A   Clear
8:53 AM 55.0 °F 41.0 °F 59% 30.10 in 10.0 mi NNW 9.2 mph - N/A   Clear
9:53 AM 55.9 °F 39.9 °F 55% 30.12 in 10.0 mi NNW 11.5 mph - N/A   Clear
10:53 AM 59.0 °F 39.9 °F 49% 30.11 in 10.0 mi North 6.9 mph - N/A   Clear
11:53 AM 60.1 °F 41.0 °F 49% 30.10 in 10.0 mi North 5.8 mph - N/A   Clear
12:53 PM 63.0 °F 37.9 °F 40% 30.09 in 10.0 mi North 5.8 mph - N/A   Clear
1:53 PM 64.9 °F 37.0 °F 36% 30.06 in 10.0 mi Variable 3.5 mph - N/A   Clear
2:53 PM 64.9 °F 35.1 °F 33% 30.05 in 10.0 mi Calm Calm - N/A   Clear
3:53 PM 64.9 °F 36.0 °F 34% 30.04 in 10.0 mi SSE 4.6 mph - N/A   Clear
4:53 PM 61.0 °F 43.0 °F 52% 30.03 in 10.0 mi ESE 4.6 mph - N/A   Clear
5:53 PM 55.9 °F 46.9 °F 72% 30.03 in 10.0 mi SE 3.5 mph - N/A   Clear
6:53 PM 54.0 °F 46.9 °F 77% 30.03 in 10.0 mi Calm Calm - N/A   Clear
7:53 PM 52.0 °F 46.0 °F 80% 30.04 in 10.0 mi South 3.5 mph - N/A   Clear
8:53 PM 50.0 °F 44.1 °F 80% 30.05 in 10.0 mi SSE 3.5 mph - N/A   Partly Cloudy
9:53 PM 48.9 °F 45.0 °F 86% 30.04 in 10.0 mi Calm Calm - N/A   Scattered Clouds
10:53 PM 50.0 °F 46.9 °F 89% 30.04 in 10.0 mi Calm Calm - N/A   Mostly Cloudy
11:53 PM 48.9 °F 46.0 °F 90% 30.02 in 10.0 mi Calm Calm - N/A   Scattered Clouds